Detroit Lakes, MN

4:52 AM CDT on April 19, 2018 (GMT -0500)
Detroit Lakes

Weather History for KDTL - October, 2012

Change the Weather History Date:

Saturday, October 20, 2012

  Actual Average Record
Temperature  
Mean Temperature 44 °F -  
Max Temperature 50 °F 55 °F 82 °F (1953)
Min Temperature 39 °F 33 °F 19 °F (1989)
Degree Days  
Heating Degree Days 20    
Moisture  
Dew Point 41 °F    
Average Humidity 91    
Maximum Humidity 100    
Minimum Humidity 71    
Precipitation  
Precipitation 0.00 in - - ()
Sea Level Pressure  
Sea Level Pressure 29.72 in    
Wind  
Wind Speed 5 mph (South)    
Max Wind Speed 16 mph    
Max Gust Speed 22 mph    
Visibility 9 miles    
Events Rain    
Averages and records for this station are not official NWS values.
T = Trace of Precipitation, MM = Missing Value Source: NWS Daily Summary

Daily Weather History Graph

Daily Weather History Graph

Search for Another Location

Airport or City:

Astronomy

Oct. 20, 2012 Rise Set
Actual Time 7:49 AM CDT 6:26 PM CDT
Civil Twilight 7:18 AM CDT 6:57 PM CDT
Nautical Twilight 6:42 AM CDT 7:32 PM CDT
Astronomical Twilight 6:07 AM CDT 8:07 PM CDT
Moon 1:36 PM CDT (10/20) 11:03 PM CDT (10/20)
Length of Visible Light 11h 39m
Length of Day
10h 37m
Waxing Crescent, 34% of the Moon is Illuminated
Oct 20
Waxing Crescent
Oct 21
First Quarter
Oct 29
Full
Nov 6
Last Quarter
Nov 13
New

Hourly Weather History & Observations

Time (CDT) Temp. Windchill Dew Point Humidity Pressure Visibility Wind Dir Wind Speed Gust Speed Precip Events Conditions
12:13 AM 41.0 °F - 41.0 °F 100% 29.74 in 4.0 mi Calm Calm - N/A   Overcast
12:32 AM 41.0 °F - 41.0 °F 100% 29.74 in 1.2 mi Calm Calm - N/A   Overcast
12:53 AM 41.0 °F - 41.0 °F 100% 29.73 in 0.8 mi Calm Calm - N/A   Overcast
1:13 AM 41.0 °F - 41.0 °F 100% 29.73 in 7.0 mi Calm Calm - N/A   Overcast
1:33 AM 41.0 °F - 41.0 °F 100% 29.73 in 1.0 mi Calm Calm - N/A   Overcast
1:53 AM 41.0 °F - 41.0 °F 100% 29.73 in 1.2 mi Calm Calm - N/A   Overcast
2:12 AM 41.0 °F - 41.0 °F 100% 29.73 in 2.0 mi Calm Calm - N/A   Overcast
2:33 AM 41.0 °F - 41.0 °F 100% 29.74 in 7.0 mi Calm Calm - N/A   Overcast
2:53 AM 41.0 °F - 41.0 °F 100% 29.75 in 10.0 mi Calm Calm - N/A   Overcast
3:13 AM 41.0 °F - 41.0 °F 100% 29.74 in 3.0 mi Calm Calm - N/A   Overcast
3:33 AM 41.0 °F 39.0 °F 41.0 °F 100% 29.74 in 3.0 mi SW 3.5 mph - N/A   Overcast
3:53 AM 41.0 °F 39.0 °F 41.0 °F 100% 29.74 in 10.0 mi WSW 3.5 mph - N/A   Overcast
4:13 AM 41.0 °F - 41.0 °F 100% 29.73 in 10.0 mi Calm Calm - N/A   Overcast
4:33 AM 41.0 °F - 41.0 °F 100% 29.74 in 10.0 mi Calm Calm - N/A   Overcast
4:53 AM 41.0 °F - 41.0 °F 100% 29.74 in 10.0 mi Calm Calm - N/A   Overcast
5:13 AM 41.0 °F - 41.0 °F 100% 29.73 in 10.0 mi Calm Calm - N/A   Overcast
5:33 AM 41.0 °F 39.0 °F 41.0 °F 100% 29.73 in 10.0 mi SW 3.5 mph - N/A   Overcast
5:53 AM 41.0 °F 38.0 °F 41.0 °F 100% 29.73 in 10.0 mi SSW 4.6 mph - N/A   Overcast
6:13 AM 41.0 °F - 41.0 °F 100% 29.73 in 10.0 mi Calm Calm - N/A   Overcast
6:33 AM 41.0 °F 38.0 °F 41.0 °F 100% 29.73 in 10.0 mi SSE 4.6 mph - N/A   Overcast
6:53 AM 41.0 °F 39.0 °F 41.0 °F 100% 29.73 in 10.0 mi South 3.5 mph - N/A   Overcast
7:12 AM 41.0 °F 39.0 °F 41.0 °F 100% 29.73 in 10.0 mi South 3.5 mph - N/A   Overcast
7:33 AM 41.0 °F - 41.0 °F 100% 29.74 in 10.0 mi Calm Calm - N/A   Overcast
7:53 AM 41.0 °F 37.1 °F 41.0 °F 100% 29.74 in 10.0 mi South 5.8 mph - N/A   Overcast
8:12 AM 41.0 °F 36.4 °F 39.2 °F 93% 29.75 in 10.0 mi SW 6.9 mph - N/A   Overcast
8:33 AM 41.0 °F 36.4 °F 39.2 °F 93% 29.75 in 10.0 mi SSW 6.9 mph - N/A   Overcast
8:53 AM 41.0 °F 37.1 °F 39.2 °F 93% 29.75 in 7.0 mi SW 5.8 mph - N/A   Overcast
9:12 AM 39.2 °F 33.6 °F 39.2 °F 100% 29.74 in 5.0 mi SSW 8.1 mph - N/A   Overcast
9:33 AM 41.0 °F 35.2 °F 39.2 °F 93% 29.74 in 7.0 mi South 9.2 mph - N/A   Overcast
9:53 AM 41.0 °F 35.8 °F 41.0 °F 100% 29.75 in 10.0 mi South 8.1 mph - N/A   Overcast
10:12 AM 41.0 °F 35.8 °F 39.2 °F 93% 29.74 in 10.0 mi South 8.1 mph - N/A   Overcast
10:33 AM 42.8 °F 37.0 °F 41.0 °F 93% 29.74 in 10.0 mi South 10.4 mph - N/A   Overcast
10:53 AM 42.8 °F 36.6 °F 41.0 °F 93% 29.73 in 10.0 mi SSE 11.5 mph - N/A   Overcast
11:12 AM 42.8 °F 38.0 °F 41.0 °F 93% 29.74 in 10.0 mi SSE 8.1 mph - N/A   Overcast
11:33 AM 44.6 °F 40.2 °F 41.0 °F 87% 29.74 in 10.0 mi South 8.1 mph - N/A   Mostly Cloudy
11:53 AM 44.6 °F 39.2 °F 41.0 °F 87% 29.73 in 10.0 mi South 10.4 mph - N/A   Mostly Cloudy
12:13 PM 44.6 °F 38.8 °F 41.0 °F 87% 29.72 in 10.0 mi South 11.5 mph - N/A   Mostly Cloudy
12:33 PM 46.4 °F 41.5 °F 41.0 °F 81% 29.73 in 10.0 mi SSW 10.4 mph - N/A   Overcast
12:53 PM 46.4 °F 41.1 °F 41.0 °F 81% 29.72 in 10.0 mi South 11.5 mph - N/A   Overcast
1:13 PM 46.4 °F 41.1 °F 41.0 °F 81% 29.71 in 10.0 mi South 11.5 mph - N/A   Overcast
1:33 PM 48.2 °F - 41.0 °F 76% 29.71 in 10.0 mi South 12.7 mph - N/A   Overcast
1:53 PM 46.4 °F 40.4 °F 41.0 °F 81% 29.70 in 10.0 mi South 13.8 mph - N/A   Overcast
2:12 PM 48.2 °F - 41.0 °F 76% 29.70 in 10.0 mi South 10.4 mph - N/A   Overcast
2:33 PM 46.4 °F 40.1 °F 41.0 °F 81% 29.70 in 10.0 mi SSE 15.0 mph - N/A   Overcast
2:53 PM 46.4 °F 41.1 °F 41.0 °F 81% 29.71 in 10.0 mi South 11.5 mph - N/A   Overcast
3:13 PM 46.4 °F 41.1 °F 41.0 °F 81% 29.71 in 10.0 mi South 11.5 mph - N/A   Overcast
3:33 PM 48.2 °F - 41.0 °F 76% 29.69 in 10.0 mi South 13.8 mph - N/A   Scattered Clouds
3:52 PM 50.0 °F - 41.0 °F 71% 29.69 in 10.0 mi South 13.8 mph 19.6 mph N/A   Scattered Clouds
4:13 PM 50.0 °F - 42.8 °F 76% 29.69 in 10.0 mi South 13.8 mph - N/A   Scattered Clouds
4:32 PM 50.0 °F - 42.8 °F 76% 29.68 in 10.0 mi South 12.7 mph - N/A   Clear
4:53 PM 50.0 °F - 42.8 °F 76% 29.68 in 10.0 mi SSE 16.1 mph 21.9 mph N/A   Clear
5:13 PM 50.0 °F - 42.8 °F 76% 29.69 in 10.0 mi SSE 12.7 mph - N/A   Clear
5:33 PM 48.2 °F - 41.0 °F 76% 29.69 in 10.0 mi SSE 12.7 mph - N/A   Clear
5:53 PM 48.2 °F - 42.8 °F 82% 29.69 in 10.0 mi SSE 13.8 mph 19.6 mph N/A   Clear
6:12 PM 46.4 °F 40.1 °F 42.8 °F 87% 29.68 in 10.0 mi SSE 15.0 mph 18.4 mph N/A   Clear
6:33 PM 46.4 °F 40.7 °F 42.8 °F 87% 29.69 in 10.0 mi SSE 12.7 mph - N/A   Clear
6:53 PM 44.6 °F 38.8 °F 42.8 °F 93% 29.69 in 10.0 mi SSE 11.5 mph - N/A   Clear
7:12 PM 44.6 °F 38.8 °F 42.8 °F 93% 29.68 in 10.0 mi SSE 11.5 mph - N/A   Clear
7:33 PM 44.6 °F 38.4 °F 42.8 °F 93% 29.69 in 10.0 mi SSE 12.7 mph - N/A   Clear
7:53 PM 46.4 °F 41.5 °F 42.8 °F 87% 29.69 in 10.0 mi SSE 10.4 mph - N/A   Clear
8:12 PM 46.4 °F 40.1 °F 42.8 °F 87% 29.69 in 10.0 mi SSE 15.0 mph - N/A   Clear
8:33 PM 46.4 °F 40.1 °F 42.8 °F 87% 29.69 in 10.0 mi SSE 15.0 mph - N/A   Clear
8:53 PM 44.6 °F 38.1 °F 42.8 °F 93% 29.70 in 10.0 mi SSE 13.8 mph - N/A   Clear
9:12 PM 44.6 °F 37.4 °F 42.8 °F 93% 29.70 in 10.0 mi SSE 16.1 mph 19.6 mph N/A   Clear
9:33 PM 46.4 °F 40.4 °F 42.8 °F 87% 29.70 in 10.0 mi SSE 13.8 mph - N/A   Clear
9:53 PM 44.6 °F 38.4 °F 42.8 °F 93% 29.70 in 10.0 mi South 12.7 mph - N/A   Clear
10:12 PM 46.4 °F 41.1 °F 42.8 °F 87% 29.71 in 10.0 mi SSE 11.5 mph - N/A   Clear
10:33 PM 46.4 °F 41.5 °F 42.8 °F 87% 29.72 in 10.0 mi SSE 10.4 mph - N/A   Light Drizzle
10:52 PM 46.4 °F 40.7 °F 42.8 °F 87% 29.71 in 10.0 mi SSE 12.7 mph - N/A   Drizzle
11:13 PM 46.4 °F 41.5 °F 44.6 °F 93% 29.73 in 10.0 mi SSE 10.4 mph - N/A Rain Light Rain
11:33 PM 46.4 °F 40.4 °F 44.6 °F 93% 29.71 in 10.0 mi SSE 13.8 mph 17.3 mph N/A Rain Light Rain
11:52 PM 46.4 °F 39.8 °F 44.6 °F 93% 29.70 in 10.0 mi SSE 16.1 mph - N/A   Clear